Regional Weather Roundup
Issued by NWS Newport/Morehead, NC

Current Version | Previous Version | Graphics & Text | Print | Product List | Glossary Off
Versions: 1 2 3 4 5 6 7 8 9 10 11 12 13 14 15 16 17 18 19 20 21 22 23 24 25 26 27 28 29 30 31 32 33 34 35 36 37 38 39 40 41 42 43 44 45 46 47 48 49 50

000
ASUS42 KMHX 222012
RWRMHX
WEATHER ROUNDUP FOR EASTERN NORTH CAROLINA
NATIONAL WEATHER SERVICE NEWPORT/MOREHEAD CITY NC
400 PM EDT SAT APR 22 2017

NOTE: "FAIR" INDICATES FEW OR NO CLOUDS BELOW 12,000 FEET
WITH NO SIGNIFICANT WEATHER AND/OR OBSTRUCTIONS TO VISIBILITY

NCZ015>017-031-032-045>047-102-103-222100-
NORTH COAST

CITY           SKY/WX    TMP DP  RH WIND       PRES   REMARKS
EDENTON        CLOUDY    87  62  42 SW12      29.79F
ELIZABETH CITY LGT RAIN  77  67  71 W9        29.80F
KITTY HAWK     MOCLDY    81  61  50 CALM      29.80F
MANTEO         PTSUNNY   80  69  69 S14G23    29.81F

$$

NCZ045>047-081-094-103-104-222100-
CENTRAL COAST

CITY           SKY/WX    TMP DP  RH WIND       PRES   REMARKS
FRISCO         NOT AVBL

$$

NCZ095-097-098-100-101-222100-
SOUTHERN COAST

CITY           SKY/WX    TMP DP  RH WIND       PRES   REMARKS
BEAUFORT       SUNNY     76  69  79 SW22G28   29.86F
CEDAR ISLAND   NOT AVBL
JACKSONVILLE   MOSUNNY   84  68  58 S10       29.83F
PINEY ISLAND   CLEAR    N/A N/A N/A SW16G26   29.85
WILMINGTON     SUNNY     84  65  52 SW13G24   29.85F


$$

NCZ011>013-027>030-043-044-078>080-089-090>093-098-222100-
COASTAL PLAIN

CITY           SKY/WX    TMP DP  RH WIND       PRES   REMARKS
AHOSKIE          N/A     83  64  51 S5        29.77F
CLINTON        SUNNY     86  61  42 SW8G18    29.82F
ELIZABETHTOWN  SUNNY     87  57  35 S10G18    29.83F
GOLDSBORO      SUNNY     88  56  33 SW16G22   29.78F
GREENVILLE     MOSUNNY   86  59  39 SW13G20   29.82F
HAVELOCK       NOT AVBL
KENANSVILLE    MOSUNNY   88  59  37 W15G21    29.81F
KINSTON        MOSUNNY   90  55  31 SW16      29.81F
NEW BERN       PTSUNNY   87  63  44 W14G20    29.83F
RICHLANDS      MOSUNNY   85  61  44 SW8G16    29.83F
ROCKY MOUNT    MOSUNNY   86  60  41 SW13G25   29.78F
WASHINGTON     SUNNY     87  59  39 SW16G22   29.80F
WHITEVILLE     SUNNY     87  57  36 SW12      29.84F

$$

AMZ130-135-150-152-154-156-158-170-250-252-270-ANZ085-086-088-633-658-670-222100-
MARINE OBSERVATIONS

STATION/POSITION TIME  TEMP    WIND        PRES    WAVE   SWELL
                       AIR SEA DIR/SP/G            HT/PER HT/PER
                 (UTC) (F)     (DEG/KT/KT) (MB)    (FT/S) (FT/S)
CHESAPEAKE LIGHT NOT AVBL
64 E VA BEACH    1950   61 59  310/  6/  8 1010.8    4/ 6   3/ 6
DUCK             1948   78 54  170/  6/  9 1008.8
2 E DUCK         1930      60                N/A     3/11   2/11
OREGON INLET     1942   74 75  190/ 19/ 22 1009.8
13E OREGON INLT  1948      64                N/A     4/13   3/13
HATTERAS CG      1948   74 70  210/ 12/ 19 1010.9
DIAMOND BUOY     1950   76 75  230/ 21/ 25 1011.3    5/ 5   2/11
CAPE LOOKOUT     2000   74     220/ 12/ 17 1011.2
BEAUFORT LAB     1948   74 68  220/ 11/ 20 1010.5
30 SE NEW RVR IN 1908   71     230/ 17/ 23 1012.4
30 SE NEW RVR IN 1943      71                N/A     5/ 6   2/12
27 SE WRIGHTSVLE 1908   72 71  210/ 16/ 21 1012.1
5 SE WRIGHTSVLE  1908   71 69  210/ 17/ 21 1011.5
225 S CAPE HAT   1950   72 74  210/ 10/ 14 1016.2    4/12   3/12
41 SE CHARLESTON 1950   74 74  220/ 16/ 17 1013.0    3/ 5   2/11

$$




USA.gov is the U.S. government's official web portal to all federal, state and local government web resources and services.